Location: Complexul Astronomic Baia Mare
(47.6577°N, 23.5639°E)
Time: 06:54:17
(UTC+03:00)

ISS - Pass Details

Date: 13 May 2017
Orbit: 402 x 408 km, 51.6° (Epoch: 29 May)

Event Time Altitude Azimuth Distance (km) Brightness Sun altitude
Exits shadow 04:29:03 17° 255° (WSW) 1,122 -2.1 -11.8°
Maximum altitude 04:31:28 73° 339° (NNW) 428 -3.7 -11.5°
Drops below altitude 10° 04:34:45 10° 65° (ENE) 1,464 0.3 -11.1°
Sets 04:36:50 0° 67° (ENE) 2,324 1.5 -10.9°
